Chicopee, MA

1:12 PM EDT on September 15, 2019 (GMT -0400)
Westover Air Reserve Base / Metropolitan Airport

Weather History for KCEF - August, 2019

Change the Weather History Date:

Sunday, August 18, 2019

  Actual Average Record
Temperature  
Mean Temperature 78 °F -  
Max Temperature 90 °F 79 °F 96 °F (2002)
Min Temperature 67 °F 58 °F 49 °F (2014)
Cooling Degree Days 14    
Growing Degree Days 28 (Base 50)    
Moisture  
Dew Point 69 °F    
Average Humidity 84    
Maximum Humidity 100    
Minimum Humidity 46    
Precipitation  
Precipitation 0.41 in - - ()
Sea Level Pressure  
Sea Level Pressure 30.01 in    
Wind  
Wind Speed 3 mph (SSW)    
Max Wind Speed 21 mph    
Max Gust Speed 29 mph    
Visibility 9 miles    
Events Rain , Thunderstorm    
Averages and records for this station are not official NWS values.
T = Trace of Precipitation, MM = Missing Value Source: NWS Daily Summary

Daily Weather History Graph

Daily Weather History Graph

Search for Another Location

Airport or City:

Astronomy

Aug. 18, 2019 Rise Set
Actual Time 6:00 AM EDT 7:46 PM EDT
Civil Twilight 5:30 AM EDT 8:16 PM EDT
Nautical Twilight 4:54 AM EDT 8:52 PM EDT
Astronomical Twilight 4:14 AM EDT 9:31 PM EDT
Moon 9:37 PM EDT (8/18) 8:45 AM EDT (8/18)
Length of Visible Light 14h 46m
Length of Day
13h 46m
Waning Gibbous, 91% of the Moon is Illuminated
Aug 18
Waning Gibbous
Aug 23
Last Quarter
Aug 30
New
Sep 5
First Quarter
Sep 14
Full

Hourly Weather History & Observations

Time (EDT) Temp. Heat Index Dew Point Humidity Pressure Visibility Wind Dir Wind Speed Gust Speed Precip Events Conditions
12:11 AM 68.0 °F - 68.0 °F 100% 30.03 in 10.0 mi Calm Calm - N/A   Overcast
12:56 AM 68.7 °F - 68.2 °F 98% 30.02 in 10.0 mi Calm Calm - N/A   Overcast
1:26 AM 68.0 °F - 68.0 °F 100% 30.02 in 10.0 mi Calm Calm - N/A   Overcast
1:56 AM 68.4 °F - 68.0 °F 99% 30.01 in 10.0 mi Calm Calm - N/A   Overcast
2:11 AM 68.0 °F - 68.0 °F 100% 30.01 in 10.0 mi Calm Calm - N/A   Overcast
2:26 AM 68.0 °F - 68.0 °F 100% 30.01 in 10.0 mi NE 4.6 mph - N/A   Overcast
2:56 AM 68.4 °F - 68.0 °F 99% 30.01 in 10.0 mi NE 3.5 mph - N/A   Overcast
3:11 AM 68.0 °F - 68.0 °F 100% 30.01 in 10.0 mi North 3.5 mph - N/A   Overcast
3:47 AM 68.0 °F - 68.0 °F 100% 30.01 in 5.0 mi Calm Calm - N/A   Light Drizzle
3:52 AM 68.0 °F - 68.0 °F 100% 30.01 in 3.0 mi Calm Calm - N/A   Overcast
3:56 AM 68.0 °F - 68.0 °F 100% 30.01 in 3.0 mi Calm Calm - 0.00 in   Overcast
4:41 AM 68.0 °F - 68.0 °F 100% 30.01 in 10.0 mi Calm Calm - N/A   Overcast
4:56 AM 68.2 °F - 68.2 °F 100% 30.01 in 10.0 mi Calm Calm - N/A   Overcast
5:26 AM 68.0 °F - 68.0 °F 100% 30.01 in 10.0 mi NE 4.6 mph - N/A   Overcast
5:56 AM 67.8 °F - 67.8 °F 100% 30.01 in 10.0 mi Calm Calm - N/A   Overcast
6:56 AM 68.5 °F - 68.2 °F 99% 30.03 in 10.0 mi Calm Calm - N/A   Overcast
7:04 AM 68.0 °F - 68.0 °F 100% 30.03 in 5.0 mi Calm Calm - N/A   Overcast
7:35 AM 69.8 °F - 68.0 °F 94% 30.04 in 10.0 mi South 4.6 mph - N/A   Mostly Cloudy
7:56 AM 69.6 °F - 66.9 °F 91% 30.05 in 10.0 mi Calm Calm - N/A   Mostly Cloudy
8:56 AM 71.2 °F - 66.7 °F 86% 30.05 in 10.0 mi SSW 3.5 mph - N/A   Mostly Cloudy
9:14 AM 71.6 °F - 68.0 °F 88% 30.05 in 10.0 mi SSW 3.5 mph - N/A   Scattered Clouds
9:37 AM 73.4 °F - 66.2 °F 78% 30.05 in 10.0 mi South 3.5 mph - N/A   Mostly Cloudy
9:56 AM 73.0 °F - 67.5 °F 83% 30.04 in 10.0 mi Calm Calm - N/A   Mostly Cloudy
10:05 AM 73.4 °F - 66.2 °F 78% 30.04 in 10.0 mi Calm Calm - N/A   Mostly Cloudy
10:12 AM 73.4 °F - 68.0 °F 83% 30.04 in 10.0 mi Calm Calm - N/A   Mostly Cloudy
10:56 AM 76.5 °F - 68.7 °F 77% 30.05 in 10.0 mi WNW 4.6 mph - N/A   Mostly Cloudy
11:02 AM 77.0 °F - 68.0 °F 74% 30.05 in 10.0 mi Calm Calm - N/A   Mostly Cloudy
11:18 AM 77.0 °F - 68.0 °F 74% 30.04 in 10.0 mi Calm Calm - N/A   Mostly Cloudy
11:56 AM 79.7 °F - 69.4 °F 71% 30.03 in 10.0 mi East 3.5 mph - N/A   Mostly Cloudy
12:56 PM 82.4 °F 86.1 °F 69.4 °F 65% 30.00 in 10.0 mi Calm Calm - N/A   Scattered Clouds
1:56 PM 86.5 °F 91.8 °F 70.5 °F 59% 30.00 in 10.0 mi Variable 3.5 mph - N/A   Scattered Clouds
2:56 PM 87.6 °F 93.5 °F 71.4 °F 58% 29.99 in 10.0 mi SSW 5.8 mph - N/A   Scattered Clouds
3:56 PM 88.2 °F 93.7 °F 70.9 °F 56% 29.96 in 10.0 mi SSW 8.1 mph - N/A   Mostly Cloudy
4:56 PM 90.7 °F 95.9 °F 69.4 °F 50% 29.96 in 10.0 mi South 11.5 mph - N/A   Mostly Cloudy
5:56 PM 89.8 °F 92.5 °F 66.7 °F 46% 29.94 in 10.0 mi WSW 9.2 mph - N/A   Scattered Clouds
6:56 PM 85.5 °F 91.8 °F 72.3 °F 65% 29.95 in 10.0 mi South 13.8 mph - N/A   Mostly Cloudy
7:56 PM 82.0 °F 86.7 °F 72.0 °F 71% 29.95 in 10.0 mi South 11.5 mph - N/A   Mostly Cloudy
8:48 PM 80.6 °F 84.6 °F 71.6 °F 74% 29.96 in 10.0 mi South 9.2 mph - N/A   Scattered Clouds
8:56 PM 80.1 °F 83.7 °F 71.4 °F 75% 29.98 in 10.0 mi South 10.4 mph - N/A   Scattered Clouds
9:25 PM 78.8 °F - 71.6 °F 78% 29.98 in 10.0 mi South 8.1 mph - N/A Thunderstorm Thunderstorm
9:39 PM 78.8 °F - 71.6 °F 78% 30.00 in 10.0 mi WSW 15.0 mph 18.4 mph N/A Rain , Thunderstorm Light Thunderstorms and Rain
9:44 PM 78.8 °F - 69.8 °F 74% 30.01 in 2.0 mi SW 19.6 mph - N/A Rain , Thunderstorm Thunderstorms and Rain
9:46 PM 78.8 °F - 69.8 °F 74% 30.01 in 1.2 mi SW 20.7 mph 28.8 mph N/A Rain , Thunderstorm Heavy Thunderstorms and Rain
9:51 PM 77.0 °F - 69.8 °F 78% 30.01 in 3.0 mi West 8.1 mph 28.8 mph N/A Rain , Thunderstorm Thunderstorms and Rain
9:56 PM 74.1 °F - 67.8 °F 81% 30.00 in 4.0 mi SW 3.5 mph 28.8 mph 0.41 in Rain , Thunderstorm Light Thunderstorms and Rain
10:17 PM 71.6 °F - 69.8 °F 94% 30.00 in 10.0 mi South 3.5 mph - N/A Rain Light Rain
10:27 PM 71.6 °F - 69.8 °F 94% 29.99 in 10.0 mi SW 3.5 mph - N/A   Mostly Cloudy
10:56 PM 72.0 °F - 69.8 °F 93% 29.98 in 10.0 mi SSE 4.6 mph - 0.00 in   Mostly Cloudy
11:56 PM 70.7 °F - 69.1 °F 95% 29.95 in 10.0 mi Calm Calm - N/A   Partly Cloudy